Radiation Dose at Monitoring Post of Fukushima Daini Nuclear Power Station
Date,Time,MP-1(microSv/h),MP-2(microSv/h),MP-3(microSv/h),MP-4(microSv/h),MP-5(microSv/h),MP-6(microSv/h),MP-7(microSv/h),Wind Direction,Wind Velocity(m/s),Rain
2023/01/20,00:00,0.154,0.140,0.215,0.212,0.211,0.123,0.078,south-southwest,4.2,No
2023/01/20,00:10,0.154,0.138,0.215,0.210,0.212,0.122,0.077,southwest,4.6,No
2023/01/20,00:20,0.153,0.139,0.214,0.212,0.212,0.121,0.078,southwest,4.3,No
2023/01/20,00:30,0.153,0.139,0.216,0.211,0.211,0.122,0.077,west-southwest,2.5,Yes
2023/01/20,00:40,0.153,0.139,0.215,0.212,0.211,0.122,0.077,west-southwest,1.7,No
2023/01/20,00:50,0.153,0.138,0.215,0.212,0.212,0.122,0.076,southwest,3.0,No
2023/01/20,01:00,0.154,0.138,0.215,0.212,0.211,0.121,0.077,southwest,3.6,No
2023/01/20,01:10,0.154,0.138,0.215,0.211,0.210,0.122,0.077,southwest,3.3,No
2023/01/20,01:20,0.153,0.140,0.214,0.209,0.212,0.122,0.078,west-southwest,3.6,No
2023/01/20,01:30,0.153,0.139,0.214,0.210,0.212,0.122,0.078,west-southwest,3.1,No
2023/01/20,01:40,0.154,0.139,0.215,0.211,0.213,0.122,0.078,west,2.1,No
2023/01/20,01:50,0.153,0.138,0.214,0.212,0.212,0.122,0.078,west,3.0,No
2023/01/20,02:00,0.153,0.139,0.214,0.210,0.212,0.122,0.078,west,3.7,No
2023/01/20,02:10,0.154,0.138,0.215,0.211,0.211,0.122,0.078,west-southwest,6.4,Yes
2023/01/20,02:20,0.154,0.138,0.214,0.211,0.212,0.121,0.078,west-southwest,6.5,No
2023/01/20,02:30,0.153,0.138,0.214,0.211,0.212,0.121,0.077,west-southwest,5.2,Yes
2023/01/20,02:40,0.154,0.139,0.214,0.212,0.212,0.122,0.078,west,4.2,No
2023/01/20,02:50,0.154,0.139,0.215,0.211,0.212,0.121,0.078,west,4.3,Yes
2023/01/20,03:00,0.153,0.138,0.215,0.211,0.212,0.123,0.077,west,5.3,No
2023/01/20,03:10,0.153,0.139,0.214,0.211,0.212,0.122,0.078,west,4.9,No
2023/01/20,03:20,0.153,0.139,0.214,0.210,0.212,0.122,0.077,west-southwest,3.9,No
2023/01/20,03:30,0.153,0.139,0.214,0.211,0.211,0.123,0.078,west-southwest,4.1,No
2023/01/20,03:40,0.153,0.139,0.215,0.212,0.212,0.122,0.077,west-southwest,4.7,No
2023/01/20,03:50,0.153,0.139,0.216,0.210,0.211,0.122,0.077,west-southwest,4.6,No
2023/01/20,04:00,0.153,0.139,0.214,0.211,0.212,0.121,0.078,west-southwest,5.2,No
2023/01/20,04:10,0.153,0.138,0.214,0.211,0.212,0.122,0.077,southwest,3.4,No
2023/01/20,04:20,0.153,0.140,0.215,0.211,0.211,0.122,0.077,southwest,3.0,No
2023/01/20,04:30,0.153,0.138,0.215,0.211,0.212,0.122,0.078,west-southwest,2.4,No
2023/01/20,04:40,0.153,0.139,0.214,0.211,0.213,0.122,0.077,southwest,1.8,No
2023/01/20,04:50,0.153,0.140,0.214,0.211,0.212,0.122,0.078,south-southwest,1.4,No
2023/01/20,05:00,0.154,0.138,0.215,0.212,0.211,0.122,0.078,southwest,1.4,No
2023/01/20,05:10,0.153,0.139,0.215,0.211,0.211,0.122,0.078,south-southwest,2.2,No
2023/01/20,05:20,0.152,0.138,0.216,0.211,0.212,0.122,0.077,southwest,2.9,No
2023/01/20,05:30,0.153,0.139,0.214,0.212,0.212,0.122,0.077,southwest,2.9,No
2023/01/20,05:40,0.154,0.139,0.215,0.212,0.212,0.122,0.078,south-southwest,2.7,No
2023/01/20,05:50,0.154,0.138,0.214,0.212,0.211,0.122,0.078,south-southwest,2.7,No
2023/01/20,06:00,0.153,0.140,0.214,0.212,0.212,0.122,0.077,south-southwest,2.5,No
2023/01/20,06:10,0.153,0.139,0.214,0.212,0.212,0.121,0.077,southwest,2.4,No
2023/01/20,06:20,0.155,0.140,0.213,0.212,0.212,0.122,0.078,south-southwest,2.0,No
2023/01/20,06:30,0.153,0.140,0.215,0.212,0.211,0.122,0.077,south-southwest,2.2,No
2023/01/20,06:40,0.153,0.139,0.215,0.212,0.212,0.122,0.078,south,2.1,No
2023/01/20,06:50,0.154,0.139,0.214,0.212,0.213,0.122,0.078,south-southwest,2.4,No
2023/01/20,07:00,0.154,0.139,0.214,0.211,0.211,0.121,0.077,south-southwest,2.3,No
2023/01/20,07:10,0.154,0.140,0.215,0.212,0.211,0.121,0.078,south,1.7,No
2023/01/20,07:20,0.154,0.139,0.215,0.213,0.213,0.122,0.078,south-southeast,2.0,No
2023/01/20,07:30,0.154,0.139,0.215,0.212,0.212,0.122,0.078,southeast,1.4,No
2023/01/20,07:40,0.154,0.139,0.215,0.213,0.212,0.122,0.078,southeast,1.8,No
2023/01/20,07:50,0.154,0.139,0.214,0.213,0.213,0.122,0.077,southeast,1.9,No
2023/01/20,08:00,0.153,0.139,0.215,0.212,0.211,0.122,0.078,east-southeast,1.9,No
2023/01/20,08:10,0.153,0.139,0.215,0.212,0.212,0.122,0.078,south-southeast,1.2,No
2023/01/20,08:20,0.154,0.139,0.216,0.211,0.212,0.122,0.078,southeast,1.7,No
2023/01/20,08:30,0.154,0.139,0.215,0.212,0.212,0.122,0.078,south-southeast,1.4,Yes
2023/01/20,08:40,0.154,0.138,0.216,0.212,0.212,0.122,0.077,south,0.7,No
2023/01/20,08:50,0.153,0.139,0.215,0.212,0.212,0.122,0.078,south-southeast,0.9,No
2023/01/20,09:00,0.154,0.139,0.215,0.212,0.211,0.122,0.078,south-southeast,0.6,No
2023/01/20,09:10,0.153,0.139,0.214,0.211,0.212,0.122,0.078,south-southeast,0.7,No
2023/01/20,09:20,0.153,0.139,0.216,0.211,0.211,0.122,0.078,south-southeast,1.4,No
2023/01/20,09:30,0.153,0.139,0.216,0.211,0.212,0.122,0.078,east-southeast,1.4,No
2023/01/20,09:40,0.154,0.140,0.214,0.210,0.214,0.122,0.078,south,0.7,No
2023/01/20,09:50,0.153,0.138,0.215,0.212,0.211,0.123,0.077,south-southeast,0.7,No
2023/01/20,10:00,0.154,0.139,0.215,0.212,0.213,0.122,0.078,south-southeast,1.4,No
2023/01/20,10:10,0.153,0.140,0.215,0.212,0.213,0.122,0.078,east-southeast,1.5,No
2023/01/20,10:20,0.154,0.139,0.215,0.212,0.212,0.122,0.078,east-southeast,1.8,No
2023/01/20,10:30,0.152,0.138,0.214,0.209,0.213,0.121,0.078,east-southeast,1.9,No
2023/01/20,10:40,0.153,0.140,0.215,0.212,0.212,0.123,0.078,southeast,1.4,No
2023/01/20,10:50,0.153,0.138,0.214,0.211,0.212,0.122,0.077,southeast,1.9,No
2023/01/20,11:00,0.154,0.140,0.214,0.211,0.213,0.122,0.078,southeast,1.6,No
2023/01/20,11:10,0.152,0.139,0.214,0.211,0.212,0.122,0.078,southeast,1.8,No
2023/01/20,11:20,0.153,0.140,0.213,0.211,0.211,0.123,0.078,southeast,2.0,No
2023/01/20,11:30,0.153,0.139,0.216,0.212,0.211,0.123,0.077,east-southeast,2.0,No
2023/01/20,11:40,0.153,0.138,0.214,0.211,0.213,0.124,0.079,southeast,1.9,No
2023/01/20,11:50,0.151,0.139,0.215,0.212,0.211,0.123,0.078,southeast,1.9,No
2023/01/20,12:00,0.153,0.138,0.215,0.211,0.212,0.123,0.078,southeast,2.4,No
2023/01/20,12:10,0.153,0.138,0.215,0.212,0.210,0.122,0.077,southeast,2.4,No
2023/01/20,12:20,0.152,0.139,0.215,0.211,0.214,0.122,0.077,east-southeast,2.2,No
2023/01/20,12:30,0.154,0.138,0.215,0.212,0.211,0.123,0.078,east-southeast,1.2,No
2023/01/20,12:40,0.153,0.138,0.215,0.212,0.213,0.122,0.078,east,2.2,No
2023/01/20,12:50,0.154,0.139,0.214,0.212,0.212,0.123,0.078,east,1.5,No
2023/01/20,13:00,0.153,0.139,0.215,0.211,0.212,0.122,0.078,east-southeast,1.4,No
2023/01/20,13:10,0.152,0.139,0.215,0.212,0.213,0.122,0.077,east,2.3,No
2023/01/20,13:20,0.153,0.138,0.216,0.210,0.213,0.123,0.078,east,1.9,No
2023/01/20,13:30,0.152,0.140,0.216,0.213,0.212,0.122,0.078,east-southeast,2.9,No
2023/01/20,13:40,0.153,0.139,0.216,0.211,0.214,0.122,0.078,east-southeast,2.6,No
2023/01/20,13:50,0.153,0.138,0.216,0.212,0.213,0.122,0.077,southeast,2.7,No
2023/01/20,14:00,0.152,0.139,0.214,0.211,0.213,0.122,0.077,east-southeast,2.8,No
2023/01/20,14:10,0.154,0.139,0.215,0.212,0.212,0.122,0.077,east-southeast,3.4,No
2023/01/20,14:20,0.153,0.138,0.214,0.211,0.212,0.122,0.078,southeast,2.5,No
2023/01/20,14:30,0.152,0.139,0.216,0.211,0.210,0.121,0.078,southeast,2.0,No
2023/01/20,14:40,0.153,0.139,0.215,0.213,0.212,0.123,0.077,southeast,2.3,No
2023/01/20,14:50,0.154,0.140,0.217,0.212,0.212,0.122,0.078,south-southeast,2.9,No
2023/01/20,15:00,0.155,0.138,0.215,0.212,0.212,0.122,0.078,south-southeast,2.8,No
2023/01/20,15:10,0.153,0.140,0.216,0.212,0.212,0.121,0.077,south-southeast,1.8,No
2023/01/20,15:20,0.154,0.138,0.215,0.212,0.212,0.122,0.078,south-southeast,2.4,No
2023/01/20,15:30,0.153,0.138,0.215,0.213,0.214,0.122,0.078,southeast,2.2,No
2023/01/20,15:40,0.153,0.140,0.215,0.212,0.212,0.122,0.077,south-southeast,2.3,No
2023/01/20,15:50,0.154,0.139,0.215,0.213,0.213,0.121,0.078,south-southeast,2.4,No
2023/01/20,16:00,0.153,0.140,0.217,0.214,0.213,0.122,0.078,south,3.0,No
2023/01/20,16:10,0.153,0.139,0.215,0.212,0.213,0.122,0.078,south-southeast,3.2,No
2023/01/20,16:20,0.154,0.139,0.215,0.212,0.214,0.122,0.078,south-southeast,3.2,No
2023/01/20,16:30,0.154,0.140,0.214,0.213,0.212,0.122,0.078,south-southeast,2.5,No
2023/01/20,16:40,0.153,0.140,0.215,0.212,0.213,0.123,0.077,south,2.8,No
2023/01/20,16:50,0.153,0.139,0.215,0.213,0.213,0.122,0.078,south-southeast,2.5,No
2023/01/20,17:00,0.154,0.139,0.216,0.213,0.213,0.123,0.078,south,2.5,No
2023/01/20,17:10,0.154,0.140,0.215,0.212,0.213,0.123,0.077,south-southwest,3.0,No
2023/01/20,17:20,0.154,0.138,0.215,0.214,0.212,0.122,0.077,southwest,2.4,No
2023/01/20,17:30,0.154,0.139,0.216,0.212,0.212,0.122,0.077,southwest,2.8,No
2023/01/20,17:40,0.154,0.139,0.217,0.213,0.212,0.122,0.078,southwest,2.4,No
2023/01/20,17:50,0.154,0.139,0.216,0.212,0.212,0.123,0.078,west,2.8,No
2023/01/20,18:00,0.153,0.140,0.216,0.214,0.212,0.123,0.078,west,2.3,No
2023/01/20,18:10,0.154,0.140,0.215,0.212,0.212,0.123,0.078,west-northwest,0.8,No
2023/01/20,18:20,0.154,0.140,0.215,0.211,0.213,0.123,0.078,west-northwest,0.6,No
2023/01/20,18:30,0.153,0.140,0.216,0.213,0.213,0.122,0.077,south-southwest,1.4,No
2023/01/20,18:40,0.154,0.139,0.216,0.212,0.212,0.123,0.078,west-southwest,2.5,No
2023/01/20,18:50,0.154,0.139,0.215,0.213,0.213,0.122,0.078,west-southwest,2.9,No
2023/01/20,19:00,0.153,0.139,0.215,0.212,0.213,0.123,0.079,west,2.2,No
2023/01/20,19:10,0.153,0.139,0.215,0.212,0.212,0.122,0.077,west,3.0,No
2023/01/20,19:20,0.153,0.140,0.217,0.213,0.213,0.123,0.078,west,5.4,No
2023/01/20,19:30,0.154,0.139,0.215,0.212,0.212,0.122,0.078,west,10.7,No
2023/01/20,19:40,0.152,0.139,0.216,0.211,0.213,0.123,0.078,west-northwest,11.2,No
2023/01/20,19:50,0.153,0.139,0.214,0.212,0.212,0.122,0.078,west,11.5,No
2023/01/20,20:00,0.154,0.139,0.216,0.212,0.211,0.122,0.077,west,12.9,No
2023/01/20,20:10,0.154,0.140,0.216,0.213,0.213,0.123,0.077,west,10.1,No
2023/01/20,20:20,0.154,0.139,0.216,0.212,0.212,0.122,0.078,west,8.9,No
2023/01/20,20:30,0.154,0.140,0.216,0.213,0.213,0.123,0.078,west,9.8,No
2023/01/20,20:40,0.155,0.139,0.215,0.212,0.211,0.121,0.078,west,11.5,No
2023/01/20,20:50,0.154,0.138,0.216,0.212,0.212,0.122,0.077,west,12.6,No
2023/01/20,21:00,0.153,0.139,0.216,0.212,0.212,0.123,0.078,west,14.5,No
2023/01/20,21:10,0.153,0.140,0.215,0.212,0.212,0.122,0.078,west,12.3,No
2023/01/20,21:20,0.154,0.139,0.215,0.211,0.212,0.123,0.077,west-northwest,10.1,No
2023/01/20,21:30,0.154,0.139,0.215,0.212,0.211,0.122,0.078,west,11.4,Yes
2023/01/20,21:40,0.155,0.140,0.216,0.213,0.212,0.123,0.077,west-northwest,11.4,Yes
2023/01/20,21:50,0.154,0.139,0.216,0.211,0.213,0.122,0.078,west,10.3,Yes
2023/01/20,22:00,0.154,0.140,0.215,0.213,0.212,0.122,0.078,west,9.5,Yes
2023/01/20,22:10,0.154,0.140,0.216,0.212,0.213,0.122,0.078,west-northwest,10.0,Yes
2023/01/20,22:20,0.154,0.140,0.217,0.214,0.212,0.122,0.078,west,10.6,No
2023/01/20,22:30,0.155,0.140,0.214,0.212,0.214,0.122,0.079,west,13.9,Yes
2023/01/20,22:40,0.155,0.140,0.217,0.214,0.214,0.123,0.078,west-northwest,10.4,No
2023/01/20,22:50,0.154,0.140,0.218,0.213,0.213,0.124,0.079,west-northwest,9.0,No
2023/01/20,23:00,0.155,0.140,0.217,0.212,0.213,0.124,0.080,west,7.0,No
2023/01/20,23:10,0.155,0.140,0.217,0.213,0.214,0.123,0.078,west-northwest,7.0,No
2023/01/20,23:20,0.155,0.141,0.217,0.214,0.214,0.124,0.079,west-northwest,8.4,No
2023/01/20,23:30,0.155,0.139,0.217,0.212,0.212,0.124,0.079,west-northwest,9.2,No
2023/01/20,23:40,0.155,0.141,0.216,0.213,0.213,0.123,0.079,west,7.8,No
2023/01/20,23:50,0.156,0.140,0.218,0.213,0.213,0.124,0.079,west-northwest,5.1,No
